Weather History for Springfield, MO

Change the Weather History Date:

Saturday, December 29, 2012

  Actual Average Record
Temperature  
Mean Temperature 27 °F 33 °F  
Max Temperature 34 °F 43 °F 68 °F (1947)
Min Temperature 19 °F 23 °F -5 °F (1983)
Degree Days  
Heating Degree Days 38 32  
Month to date heating degree days 665 868  
Since 1 July heating degree days 1582 1747  
Cooling Degree Days 0 0  
Month to date cooling degree days 2 0  
Year to date cooling degree days 1766 1389  
Moisture  
Dew Point 15 °F    
Average Humidity 62    
Maximum Humidity 77    
Minimum Humidity 47    
Precipitation  
Precipitation T in 0.08 in 2.23 in (1990)
Month to date precipitation 0.94 2.87  
Year to date precipitation 30.78 45.40  
Snow  
Snow T in - - ()
Month to date snowfall 0.1  
Since 1 July snowfall 0.1  
Snow Depth 0.00 in    
Sea Level Pressure  
Sea Level Pressure 30.25 in    
Wind  
Wind Speed 10 mph (WNW)    
Max Wind Speed 18 mph    
Max Gust Speed 25 mph    
Visibility 9 miles    
Events      
T = Trace of Precipitation, MM = Missing Value Source: NWS Daily Summary

Daily Weather History Graph

Daily Weather History Graph

Search for Another Location

Airport:

Trip Planner

Search our weather history database for the weather conditions in past years. The results will help you decide how hot, cold, wet, or windy it might be!

Date:

Astronomy

Dec. 29, 2012 Rise Set
Actual Time 7:27 AM CST 5:04 PM CST
Civil Twilight 6:57 AM CST 5:34 PM CST
Nautical Twilight 6:25 AM CST 6:06 PM CST
Astronomical Twilight 5:53 AM CST 6:38 PM CST
Moon 6:36 PM CST (12/29) 8:02 AM CST (12/29)
Length of Visible Light 10h 36m
Length of Day
9h 37m
Full, 98% of the Moon is Illuminated
Dec 29
Full
Jan 4
Last Quarter
Jan 11
New
Jan 18
First Quarter
Jan 26
Full

Hourly Weather History & Observations

Time (CST) Temp. Windchill Dew Point Humidity Pressure Visibility Wind Dir Wind Speed Gust Speed Precip Events Conditions
12:52 AM 26.1 °F 15.0 °F 18.0 °F 71% 30.05 in 8.0 mi WNW 12.7 mph - N/A   Overcast
1:25 AM 25.0 °F 15.5 °F 18.0 °F 75% 30.02 in 7.0 mi WNW 9.2 mph - N/A   Overcast
1:52 AM 25.0 °F 14.2 °F 18.0 °F 75% 30.07 in 7.0 mi WNW 11.5 mph - N/A   Overcast
2:27 AM 23.0 °F 11.7 °F 15.1 °F 72% 30.05 in 8.0 mi NW 11.5 mph - N/A   Mostly Cloudy
2:52 AM 21.9 °F 12.5 °F 15.1 °F 75% 30.10 in 7.0 mi WNW 8.1 mph - N/A   Mostly Cloudy
3:52 AM 21.0 °F 10.6 °F 15.1 °F 78% 30.12 in 8.0 mi NW 9.2 mph - N/A   Overcast
4:52 AM 21.9 °F 10.4 °F 15.1 °F 75% 30.14 in 8.0 mi NW 11.5 mph - N/A   Overcast
5:52 AM 21.9 °F 10.4 °F 15.1 °F 75% 30.16 in 9.0 mi NW 11.5 mph - N/A   Overcast
6:52 AM 23.0 °F 11.7 °F 15.1 °F 72% 30.19 in 9.0 mi NW 11.5 mph - N/A   Overcast
7:52 AM 21.9 °F 8.7 °F 15.1 °F 75% 30.22 in 7.0 mi NNW 15.0 mph - N/A   Overcast
8:52 AM 21.9 °F 9.8 °F 16.0 °F 78% 30.26 in 7.0 mi NW 12.7 mph - N/A   Overcast
9:52 AM 21.9 °F 11.0 °F 15.1 °F 75% 30.29 in 7.0 mi NW 10.4 mph - N/A   Overcast
10:52 AM 23.0 °F 11.1 °F 15.1 °F 72% 30.32 in 8.0 mi WNW 12.7 mph - N/A   Mostly Cloudy
11:48 AM 24.8 °F 13.4 °F 15.8 °F 69% 30.25 in 8.0 mi WNW 12.7 mph 19.6 mph N/A   Scattered Clouds
11:52 AM 26.1 °F 15.6 °F 16.0 °F 66% 30.30 in 8.0 mi WNW 11.5 mph 19.6 mph N/A   Partly Cloudy
12:52 PM 28.9 °F 19.8 °F 16.0 °F 58% 30.28 in 10.0 mi WNW 10.4 mph - N/A   Clear
1:52 PM 32.0 °F 23.0 °F 16.0 °F 52% 30.28 in 10.0 mi WNW 11.5 mph - N/A   Clear
2:52 PM 33.1 °F 26.9 °F 16.0 °F 50% 30.27 in 10.0 mi WNW 6.9 mph - N/A   Clear
3:52 PM 33.1 °F 26.1 °F 15.1 °F 48% 30.30 in 10.0 mi WNW 8.1 mph - N/A   Clear
4:52 PM 30.9 °F 22.8 °F 16.0 °F 54% 30.33 in 10.0 mi West 9.2 mph - N/A   Clear
5:52 PM 28.9 °F 22.8 °F 16.0 °F 58% 30.34 in 10.0 mi West 5.8 mph - N/A   Clear
6:52 PM 24.8 °F 16.9 °F 15.8 °F 69% 30.32 in 10.0 mi WSW 6.9 mph - N/A   Clear
7:52 PM 21.9 °F 17.2 °F 14.0 °F 72% 30.37 in 10.0 mi WSW 3.5 mph - N/A   Clear
8:52 PM 21.9 °F 17.2 °F 14.0 °F 72% 30.37 in 10.0 mi South 3.5 mph - N/A   Clear
9:52 PM 21.0 °F 12.4 °F 12.9 °F 71% 30.37 in 10.0 mi SSW 6.9 mph - N/A   Clear
10:52 PM 21.0 °F 11.4 °F 14.0 °F 74% 30.38 in 10.0 mi SSW 8.1 mph - N/A   Clear
11:52 PM 21.0 °F 10.6 °F 14.0 °F 74% 30.40 in 10.0 mi SSW 9.2 mph - N/A   Clear